FW1892 Weather Reports


Display with metric or nautical units.
time (UTC)temp
F
wind
direction
speed
MPH
gust
MPH
rain 1hr
in
rain 24hr
in
rain mn
in
humidity
%
barometer
mb
20260902202207 73 126 1.0 4.0 0.00 0.00 0.00 67 1019.8
20260902202203 72 108 1.0 7.0 0.00 0.01 0.00 73 1019.1
20260902201703 72 89 0.0 3.0 0.00 0.01 0.00 75 1019.0
20260902201203 72 112 1.0 5.0 0.00 0.01 0.00 75 1019.1
20260902200702 71 97 1.0 8.0 0.00 0.01 0.00 75 1019.1
20260902200657 72 140 5.0 7.0 0.00 0.00 0.00 70 1019.8
20260902200203 71 125 0.0 2.0 0.00 0.01 0.00 76 1019.1
20260902200153 71 170 3.0 6.0 0.00 0.00 0.00 73 1019.8
20260902195702 71 144 0.0 3.0 0.00 0.01 0.00 76 1019.3
20260902195648 71 195 1.0 6.0 0.00 0.00 0.00 72 1020.1
20260902195203 71 201 0.0 1.0 0.00 0.01 0.00 76 1019.3
20260902195148 71 70 1.0 4.0 0.00 0.00 0.00 72 1020.0
20260902194703 71 136 0.0 3.0 0.00 0.01 0.00 76 1019.3
20260902194647 71 177 2.0 2.0 0.00 0.00 0.00 73 1020.0
20260902194203 71 130 0.0 1.0 0.00 0.01 0.00 76 1019.4
20260902194142 71 114 1.0 2.0 0.00 0.00 0.00 73 1020.2
20260902193703 71 153 1.0 3.0 0.00 0.01 0.00 76 1019.5
20260902193638 71 127 3.0 6.0 0.00 0.00 0.00 72 1020.0
20260902193202 71 108 0.0 0.0 0.00 0.01 0.00 76 1019.4
20260902193138 71 174 0.0 2.0 0.00 0.00 0.00 72 1020.1
20260902192637 71 122 0.0 3.0 0.00 0.00 0.00 72 1020.3
20260902192203 71 92 0.0 7.0 0.00 0.01 0.00 77 1019.6
20260902192136 71 133 1.0 4.0 0.00 0.00 0.00 74 1020.3
20260902191703 71 96 1.0 7.0 0.00 0.01 0.00 77 1019.6
20260902191632 71 155 4.0 7.0 0.00 0.00 0.00 73 1020.2
20260902191203 71 102 1.0 9.0 0.00 0.01 0.00 77 1019.6
20260902191131 71 142 0.0 2.0 0.00 0.00 0.00 74 1020.3
20260902190702 71 160 0.0 6.0 0.00 0.01 0.00 77 1019.7
20260902190627 71 95 0.0 3.0 0.00 0.00 0.00 74 1020.4
20260902190202 71 99 0.0 3.0 0.00 0.01 0.00 77 1019.8
20260902190122 70 109 1.0 4.0 0.00 0.00 0.00 74 1020.5
20260902185703 71 136 0.0 0.0 0.00 0.01 0.00 76 1019.8
20260902185618 70 106 0.0 1.0 0.00 0.00 0.00 74 1020.5
20260902185204 71 135 0.0 0.0 0.00 0.01 0.00 76 1019.8
20260902185113 70 162 1.0 3.0 0.00 0.00 0.00 74 1020.4
20260902184703 71 171 0.0 0.0 0.00 0.01 0.00 76 1019.8
20260902184608 70 137 1.0 2.0 0.00 0.00 0.00 74 1020.4
20260902184103 71 163 2.0 4.0 0.00 0.00 0.00 73 1020.4
20260902183702 71 101 0.0 9.0 0.00 0.01 0.00 75 1019.6
20260902183600 71 178 1.0 3.0 0.00 0.00 0.00 72 1020.3
20260902183203 71 94 0.0 0.0 0.00 0.01 0.00 75 1019.5
20260902183056 71 160 1.0 2.0 0.00 0.00 0.00 72 1020.2
20260902182552 71 165 1.0 3.0 0.00 0.00 0.00 72 1020.4
20260902182202 71 126 2.0 14.0 0.00 0.01 0.00 75 1019.5
20260902182048 71 93 2.0 6.0 0.00 0.00 0.00 71 1020.2
20260902181703 71 117 1.0 8.0 0.00 0.01 0.00 75 1019.5
20260902181544 72 76 1.0 6.0 0.00 0.00 0.00 71 1020.1
20260902181203 71 107 0.0 10.0 0.00 0.01 0.00 75 1019.5
20260902181043 71 103 1.0 3.0 0.00 0.00 0.00 71 1020.3
20260902180702 71 94 1.0 9.0 0.00 0.01 0.00 75 1019.5
20260902180538 72 201 2.0 2.0 0.00 0.00 0.00 72 1020.2
20260902180034 71 189 1.0 3.0 0.00 0.00 0.00 72 1020.5
20260902175703 71 121 0.0 0.0 0.00 0.01 0.00 74 1019.7
20260902175534 71 284 2.0 3.0 0.00 0.00 0.00 71 1020.4
20260902175203 71 152 1.0 8.0 0.00 0.01 0.00 75 1019.8
20260902175030 71 166 2.0 4.0 0.00 0.00 0.00 71 1020.5
20260902174703 71 131 1.0 5.0 0.00 0.01 0.00 75 1019.7
20260902174526 71 169 2.0 3.0 0.00 0.00 0.00 71 1020.6
20260902174203 71 180 1.0 7.0 0.00 0.01 0.00 76 1019.6
20260902174021 71 176 4.0 6.0 0.00 0.00 0.00 72 1020.3
20260902173703 71 104 1.0 9.0 0.00 0.01 0.00 76 1019.6
20260902173515 72 263 2.0 4.0 0.00 0.00 0.00 72 1020.4
20260902173202 71 119 0.0 1.0 0.00 0.01 0.00 77 1019.6
20260902173010 71 140 1.0 3.0 0.00 0.00 0.00 72 1020.5
20260902172703 71 102 0.0 7.0 0.00 0.01 0.00 76 1019.7
20260902172509 71 75 2.0 3.0 0.00 0.00 0.00 72 1020.4
20260902172203 71 90 1.0 9.0 0.00 0.01 0.00 76 1019.8
20260902172005 71 121 1.0 3.0 0.00 0.00 0.00 73 1020.5
20260902171703 71 143 0.0 3.0 0.00 0.01 0.00 75 1019.8
20260902171500 71 97 2.0 2.0 0.00 0.00 0.00 72 1020.4
20260902171203 71 119 0.0 6.0 0.00 0.01 0.00 76 1019.8
20260902170956 71 89 1.0 2.0 0.00 0.00 0.00 73 1020.5
20260902170703 70 85 0.0 2.0 0.00 0.01 0.00 76 1019.9
20260902170456 70 138 0.0 3.0 0.00 0.00 0.00 72 1020.6
20260902170203 71 162 0.0 3.0 0.00 0.01 0.00 76 1020.0
20260902165952 70 131 1.0 3.0 0.00 0.00 0.00 74 1020.7
20260902165451 70 154 2.0 4.0 0.00 0.00 0.00 72 1020.7
20260902165203 71 133 2.0 12.0 0.00 0.01 0.00 75 1020.0
20260902164946 70 122 1.0 3.0 0.00 0.00 0.00 73 1020.5
20260902164703 71 119 0.0 2.0 0.00 0.01 0.00 75 1020.0
20260902164442 71 87 0.0 6.0 0.00 0.00 0.00 72 1020.6
20260902164203 71 110 0.0 6.0 0.00 0.01 0.00 74 1020.1
20260902163940 71 146 1.0 4.0 0.00 0.00 0.00 72 1020.8
20260902163703 71 195 0.0 3.0 0.00 0.01 0.00 74 1020.1
20260902163436 71 231 2.0 7.0 0.00 0.00 0.00 70 1020.6
20260902162933 71 131 2.0 6.0 0.00 0.00 0.00 70 1020.8
20260902162703 71 148 1.0 3.0 0.00 0.01 0.00 74 1020.1
20260902162429 71 141 1.0 3.0 0.00 0.00 0.00 70 1020.6
20260902161928 71 171 1.0 3.0 0.00 0.00 0.00 70 1020.9
20260902161703 71 162 0.0 1.0 0.00 0.01 0.00 74 1020.1
20260902161423 70 95 1.0 3.0 0.00 0.00 0.00 71 1021.0
20260902161203 71 97 0.0 1.0 0.00 0.01 0.00 73 1020.3
20260902160919 71 169 0.0 2.0 0.00 0.00 0.00 70 1020.9
20260902160703 71 127 0.0 1.0 0.00 0.01 0.00 74 1020.4
20260902160415 71 92 1.0 2.0 0.00 0.00 0.00 70 1021.2
20260902160203 71 241 0.0 1.0 0.00 0.01 0.00 74 1020.5
20260902155913 71 203 1.0 3.0 0.00 0.00 0.00 70 1021.3
20260902155703 71 122 0.0 1.0 0.00 0.01 0.00 74 1020.6
20260902155408 71 134 1.0 4.0 0.00 0.00 0.00 68 1021.4
20260902155202 71 121 1.0 7.0 0.00 0.01 0.00 74 1020.7
20260902154856 72 198 1.0 2.0 0.00 0.00 0.00 68 1021.4
20260902154702 71 116 0.0 12.0 0.00 0.01 0.00 75 1020.9
20260902154352 72 123 0.0 6.0 0.00 0.00 0.00 68 1021.7
20260902154202 70 76 1.0 8.0 0.00 0.01 0.00 77 1020.9
20260902153851 71 296 0.0 6.0 0.00 0.00 0.00 70 1021.5
20260902153703 70 112 0.0 2.0 0.00 0.01 0.00 78 1020.9
20260902153350 71 147 1.0 2.0 0.00 0.00 0.00 71 1021.6
20260902153203 70 72 1.0 10.0 0.00 0.02 0.00 78 1020.9
20260902152846 71 128 1.0 4.0 0.00 0.00 0.00 71 1021.5
20260902152703 69 99 1.0 10.0 0.00 0.02 0.00 80 1020.9
20260902152342 70 195 2.0 3.0 0.00 0.00 0.00 72 1021.5
20260902152202 69 134 2.0 12.0 0.00 0.03 0.00 80 1020.8
20260902151838 70 112 0.0 2.0 0.00 0.00 0.00 76 1021.5
20260902151333 70 208 1.0 2.0 0.00 0.00 0.00 74 1021.5
20260902151203 69 161 0.0 1.0 0.00 0.04 0.00 83 1020.8
20260902150832 70 167 5.0 7.0 0.00 0.00 0.00 75 1021.6
20260902150703 68 78 2.0 8.0 0.00 0.05 0.00 84 1020.9
20260902150329 69 137 2.0 2.0 0.00 0.00 0.00 77 1021.6
20260902145828 69 133 1.0 2.0 0.00 0.00 0.00 77 1021.5
20260902145324 68 137 1.0 1.0 0.00 0.00 0.00 79 1021.9
20260902145202 67 168 0.0 6.0 0.00 0.07 0.00 86 1021.1
20260902144819 68 87 0.0 2.0 0.00 0.00 0.00 79 1021.8
20260902144703 67 92 0.0 2.0 0.00 0.08 0.00 86 1021.1
20260902144315 68 51 2.0 2.0 0.00 0.00 0.00 80 1021.8
20260902144202 67 71 0.0 0.0 0.00 0.09 0.00 88 1021.0
20260902143810 67 69 0.0 1.0 0.00 0.00 0.00 82 1021.7
20260902143702 66 100 0.0 5.0 0.00 0.10 0.00 88 1020.9
20260902143304 67 275 3.0 3.0 0.00 0.00 0.00 82 1021.6
20260902143203 66 153 0.0 7.0 0.00 0.11 0.00 88 1020.8
20260902142800 67 75 0.0 2.0 0.00 0.00 0.00 83 1021.4
20260902142705 66 200 0.0 0.0 0.00 0.12 0.00 89 1020.7
20260902142256 67 126 1.0 3.0 0.00 0.00 0.00 84 1021.4
20260902141756 67 103 0.0 2.0 0.00 0.00 0.00 84 1021.6
20260902141702 66 104 0.0 0.0 0.00 0.14 0.00 89 1020.8
20260902141252 67 84 0.0 1.0 0.00 0.00 0.00 84 1021.2
20260902141202 66 91 0.0 3.0 0.00 0.15 0.00 90 1020.6
20260902140752 67 71 1.0 3.0 0.00 0.00 0.00 84 1021.3
20260902140247 67 139 3.0 7.0 0.00 0.00 0.00 84 1021.1
20260902140203 65 132 0.0 9.0 0.00 0.17 0.00 90 1020.4
20260902135746 66 144 2.0 6.0 0.00 0.00 0.00 85 1021.0
20260902135703 65 88 0.0 7.0 0.00 0.18 0.00 91 1020.4
20260902135242 66 128 4.0 8.0 0.00 0.00 0.00 85 1020.9
20260902135203 65 134 3.0 8.0 0.00 0.19 0.00 91 1020.3
20260902134741 66 143 0.0 4.0 0.00 0.00 0.00 86 1021.0
20260902134702 65 106 2.0 8.0 0.00 0.20 0.00 91 1020.2
20260902134238 66 144 3.0 4.0 0.00 0.00 0.00 86 1020.9
20260902134202 64 115 1.0 3.0 0.00 0.21 0.00 92 1020.2
20260902133733 65 351 1.0 6.0 0.00 0.00 0.00 86 1020.8
20260902133702 64 90 1.0 10.0 0.00 0.22 0.00 92 1020.1
20260902133232 65 120 0.0 2.0 0.00 0.00 0.00 87 1020.8
20260902132727 65 41 2.0 3.0 0.00 0.00 0.00 88 1020.8
20260902132702 64 102 1.0 8.0 0.00 0.25 0.00 92 1020.1
20260902132223 64 136 0.0 1.0 0.00 0.00 0.00 89 1020.7
20260902132203 64 87 0.0 8.0 0.00 0.26 0.00 92 1020.0
20260902131718 64 65 1.0 6.0 0.00 0.00 0.00 88 1020.7
20260902131703 64 104 3.0 8.0 0.00 0.27 0.00 93 1020.1
20260902131214 64 89 3.0 4.0 0.00 0.00 0.00 88 1020.7
20260902131203 63 104 3.0 9.0 0.00 0.28 0.00 93 1020.2
20260902130714 64 98 2.0 6.0 0.00 0.00 0.00 87 1020.9
20260902130210 64 171 1.0 1.0 0.00 0.00 0.00 88 1021.2
20260902125705 64 204 1.0 1.0 0.00 0.00 0.00 88 1021.2
20260902125703 63 166 0.0 1.0 0.00 0.29 0.00 93 1020.4
20260902125203 63 109 3.0 8.0 0.00 0.29 0.00 93 1020.3
20260902125201 64 125 1.0 6.0 0.00 0.00 0.00 87 1020.9
20260902124703 63 90 1.0 8.0 0.00 0.29 0.00 94 1020.3
20260902124657 64 191 0.0 1.0 0.00 0.00 0.00 88 1021.0
20260902124157 64 42 2.0 4.0 0.00 0.00 0.00 88 1020.9
20260902123703 63 158 0.0 2.0 0.00 0.29 0.00 94 1020.3
20260902123653 64 156 1.0 4.0 0.00 0.00 0.00 88 1021.0
20260902123203 63 110 1.0 8.0 0.00 0.29 0.00 94 1020.2
20260902123149 64 147 2.0 4.0 0.00 0.00 0.00 89 1020.7
20260902122642 64 166 0.0 3.0 0.00 0.00 0.00 90 1020.9
20260902122202 62 101 0.0 0.0 0.00 0.29 0.00 94 1020.2
20260902122139 64 115 1.0 2.0 0.00 0.00 0.00 90 1020.9
20260902121702 62 123 0.0 0.0 0.00 0.29 0.00 94 1020.3
20260902121633 63 121 0.0 2.0 0.00 0.00 0.00 90 1021.1
20260902121203 62 74 0.0 0.0 0.00 0.29 0.00 94 1020.4
20260902121133 63 95 1.0 2.0 0.00 0.00 0.00 91 1021.1
20260902120623 63 135 2.0 2.0 0.00 0.00 0.00 91 1021.1
20260902120202 62 106 0.0 0.0 0.00 0.29 0.00 94 1020.4
20260902120119 62 124 0.0 1.0 0.00 0.00 0.00 92 1021.0
20260902115703 62 87 0.0 0.0 0.00 0.29 0.00 94 1020.5
20260902115614 62 98 0.0 3.0 0.00 0.00 0.00 92 1021.3
20260902115203 62 338 0.0 0.0 0.00 0.29 0.00 94 1020.6
20260902115110 62 125 0.0 0.0 0.00 0.00 0.00 93 1021.3
20260902114703 62 338 0.0 0.0 0.00 0.29 0.00 94 1020.7
20260902114606 62 131 0.0 0.0 0.00 0.00 0.00 93 1021.3
20260902114203 62 338 0.0 0.0 0.00 0.29 0.00 94 1020.7
20260902114105 62 137 0.0 0.0 0.00 0.00 0.00 93 1021.3
20260902113703 62 338 0.0 0.0 0.00 0.29 0.00 94 1020.7
20260902113601 62 139 0.0 0.0 0.00 0.00 0.00 93 1021.4
20260902113203 62 338 0.0 0.0 0.00 0.29 0.00 94 1020.7
20260902113056 62 138 0.0 0.0 0.00 0.00 0.00 93 1021.4
20260902112703 62 338 0.0 0.0 0.00 0.29 0.00 94 1020.7
20260902112551 62 139 0.0 0.0 0.00 0.00 0.00 93 1021.4
20260902112202 62 338 0.0 0.0 0.00 0.29 0.00 94 1020.6
20260902112048 62 135 0.0 0.0 0.00 0.00 0.00 93 1021.1
20260902111702 62 338 0.0 0.0 0.00 0.29 0.00 94 1020.4
20260902111544 62 179 0.0 0.0 0.00 0.00 0.00 93 1021.1
20260902111039 62 131 0.0 0.0 0.00 0.00 0.00 93 1021.0
20260902110703 62 338 0.0 0.0 0.00 0.29 0.00 94 1020.3
20260902110536 62 134 0.0 0.0 0.00 0.00 0.00 93 1020.9
20260902110202 62 338 0.0 0.0 0.00 0.29 0.00 94 1020.3
20260902110031 62 161 0.0 0.0 0.00 0.00 0.00 93 1020.9
20260902105703 62 338 0.0 0.0 0.00 0.29 0.00 94 1020.2
20260902105532 62 219 0.0 0.0 0.00 0.00 0.00 94 1020.6
20260902105203 62 338 0.0 0.0 0.00 0.29 0.00 94 1020.0
20260902105031 62 166 0.0 0.0 0.00 0.00 0.00 94 1020.7
20260902104702 62 338 0.0 0.0 0.00 0.29 0.00 94 1020.1
20260902104527 62 170 0.0 0.0 0.00 0.00 0.00 95 1020.5
20260902104203 62 338 0.0 0.0 0.00 0.29 0.00 94 1019.9
20260902104027 62 132 0.0 0.0 0.00 0.00 0.00 95 1020.6
20260902103703 62 338 0.0 0.0 0.00 0.29 0.00 94 1019.8
20260902103522 61 125 0.0 0.0 0.00 0.00 0.00 95 1020.2
20260902103203 62 338 0.0 0.0 0.00 0.29 0.00 94 1019.8
20260902103018 62 132 0.0 0.0 0.00 0.00 0.00 95 1020.2
20260902102703 62 338 0.0 0.0 0.00 0.29 0.00 94 1019.6
20260902102514 62 130 0.0 0.0 0.00 0.00 0.00 95 1020.2
20260902102203 62 338 0.0 0.0 0.00 0.29 0.00 94 1019.6
20260902102011 62 130 0.0 0.0 0.00 0.00 0.00 96 1020.3
20260902101703 62 338 0.0 0.0 0.00 0.29 0.00 94 1019.6
20260902101506 62 133 0.0 0.0 0.00 0.00 0.00 96 1020.3
20260902101203 62 338 0.0 0.0 0.00 0.29 0.00 94 1019.7
20260902101004 62 132 0.0 0.0 0.00 0.00 0.00 96 1020.3
20260902100702 62 338 0.0 0.0 0.00 0.29 0.00 94 1019.7
20260902100500 62 122 0.0 0.0 0.00 0.00 0.00 96 1020.2
20260902100203 62 338 0.0 0.0 0.00 0.29 0.00 94 1019.7
20260902095959 62 122 0.0 0.0 0.00 0.00 0.00 96 1020.4
20260902095703 62 338 0.0 0.0 0.00 0.29 0.00 94 1019.7
20260902095454 62 122 0.0 0.0 0.00 0.00 0.00 96 1020.4
20260902095203 62 338 0.0 0.0 0.00 0.29 0.00 94 1019.6
20260902094953 62 91 0.0 0.0 0.00 0.00 0.00 96 1020.1
20260902094703 62 338 0.0 0.0 0.00 0.29 0.00 94 1019.4
20260902094449 62 116 0.0 0.0 0.00 0.00 0.00 96 1020.0
20260902094203 62 338 0.0 0.0 0.00 0.29 0.00 94 1019.4
20260902093943 62 116 0.0 0.0 0.00 0.00 0.00 96 1020.0
20260902093703 62 338 0.0 0.0 0.00 0.29 0.00 94 1019.3
20260902093438 62 112 0.0 0.0 0.00 0.00 0.00 96 1019.9
20260902092937 62 140 0.0 0.0 0.00 0.00 0.00 96 1020.1
20260902092703 62 338 0.0 0.0 0.00 0.29 0.00 94 1019.4
20260902092433 62 139 0.0 0.0 0.00 0.00 0.00 96 1020.0
20260902092203 62 338 0.0 0.0 0.00 0.29 0.00 94 1019.4
20260902091933 62 133 0.0 0.0 0.00 0.00 0.00 96 1019.9
20260902091702 62 338 0.0 0.0 0.00 0.29 0.00 94 1019.2
20260902091429 62 133 0.0 0.0 0.00 0.00 0.00 96 1019.9
20260902091203 62 338 0.0 0.0 0.00 0.29 0.00 94 1019.3
20260902090925 62 133 0.0 0.0 0.00 0.00 0.00 96 1020.0
20260902090703 62 338 0.0 0.0 0.00 0.29 0.00 94 1019.3
20260902090425 62 133 0.0 0.0 0.00 0.00 0.00 96 1020.0
20260902090203 62 338 0.0 0.0 0.00 0.29 0.00 94 1019.2
20260902085924 62 133 0.0 0.0 0.00 0.00 0.00 96 1019.9
20260902085419 62 127 0.0 0.0 0.00 0.00 0.00 96 1019.9
20260902084914 62 127 0.0 0.0 0.00 0.00 0.00 96 1020.0
20260902084702 62 338 0.0 0.0 0.00 0.29 0.00 94 1019.3
20260902084411 62 147 0.0 0.0 0.00 0.00 0.00 96 1020.0
20260902084203 62 338 0.0 0.0 0.00 0.29 0.00 94 1019.2
20260902083907 62 155 0.0 0.0 0.00 0.00 0.00 96 1019.7
20260902083703 62 338 0.0 0.0 0.00 0.29 0.00 94 1019.0
20260902083406 62 107 0.0 0.0 0.00 0.00 0.00 96 1019.5
20260902083203 62 338 0.0 0.0 0.00 0.29 0.00 94 1019.0
20260902082901 62 120 0.0 0.0 0.00 0.00 0.00 96 1019.6
20260902082703 62 338 0.0 0.0 0.00 0.29 0.00 94 1019.0
20260902082357 62 77 0.0 0.0 0.00 0.00 0.00 96 1019.7
20260902082203 62 338 0.0 0.0 0.00 0.29 0.00 94 1019.2
20260902081854 62 119 0.0 0.0 0.00 0.00 0.00 96 1019.9
20260902081702 62 338 0.0 0.0 0.00 0.29 0.00 94 1019.3
20260902081349 62 60 0.0 0.0 0.00 0.00 0.00 96 1019.8
20260902080844 62 126 0.0 0.0 0.00 0.00 0.00 97 1020.0
20260902080703 62 337 0.0 0.0 0.00 0.29 0.00 94 1019.3
20260902080341 62 131 0.0 0.0 0.00 0.00 0.00 97 1019.8
20260902080203 62 337 0.0 0.0 0.00 0.29 0.00 94 1019.3
20260902075840 62 122 0.0 0.0 0.00 0.00 0.00 96 1019.9
20260902075336 62 122 0.0 0.0 0.00 0.00 0.00 96 1019.8
20260902075202 62 337 0.0 0.0 0.00 0.29 0.00 94 1019.3
20260902074831 62 122 0.0 0.0 0.00 0.00 0.00 96 1020.0
20260902074702 62 337 0.0 0.0 0.00 0.29 0.00 94 1019.2
20260902074327 62 122 0.0 0.0 0.00 0.00 0.00 96 1019.9
20260902074203 62 337 0.0 0.0 0.00 0.29 0.00 94 1019.4
20260902073827 62 122 0.0 0.0 0.00 0.00 0.00 96 1020.2
20260902073703 62 337 0.0 0.0 0.00 0.29 0.00 94 1019.4
20260902073324 62 122 0.0 0.0 0.00 0.00 0.00 96 1020.2
20260902073203 62 337 0.0 0.0 0.00 0.29 0.00 94 1019.5
20260902072820 62 121 0.0 0.0 0.00 0.00 0.00 96 1020.2
20260902072703 62 337 0.0 0.0 0.00 0.29 0.00 94 1019.6
20260902072315 62 120 0.0 0.0 0.00 0.00 0.00 96 1020.0
20260902072203 62 337 0.0 0.0 0.00 0.29 0.00 94 1019.4
20260902071811 62 137 0.0 0.0 0.00 0.00 0.00 96 1020.0
20260902071703 62 337 0.0 0.0 0.00 0.29 0.00 94 1019.4
20260902071306 62 99 0.0 0.0 0.00 0.00 0.00 96 1020.1
20260902071202 62 337 0.0 0.0 0.00 0.29 0.00 94 1019.5
20260902070803 62 110 0.0 0.0 0.00 0.00 0.00 96 1020.2
20260902070703 62 337 0.0 0.0 0.00 0.29 0.00 94 1019.4
20260902070302 62 109 0.0 0.0 0.00 0.00 0.00 96 1020.1
20260902070203 62 337 0.0 0.0 0.00 0.29 0.00 94 1019.3
20260902065801 62 126 0.0 0.0 0.00 0.00 0.00 97 1019.8
20260902065703 62 338 0.0 0.0 0.00 0.29 0.00 94 1019.2
20260902065256 62 106 0.0 0.0 0.00 0.00 0.00 96 1020.0
20260902065203 62 144 0.0 0.0 0.00 0.29 0.00 94 1019.3
20260902064752 62 103 0.0 0.0 0.00 0.00 0.00 96 1020.1
20260902064703 62 144 0.0 0.0 0.00 0.29 0.00 94 1019.2
20260902064248 62 140 0.0 0.0 0.00 0.00 0.00 97 1019.8
20260902064203 62 144 0.0 0.0 0.00 0.29 0.00 94 1019.2
20260902063743 62 139 0.0 0.0 0.00 0.00 0.00 96 1020.0
20260902063702 62 144 0.0 0.0 0.00 0.29 0.00 94 1019.2
20260902063238 62 150 0.0 0.0 0.00 0.00 0.00 96 1019.8
20260902062737 62 133 0.0 0.0 0.00 0.00 0.00 97 1019.9
20260902062703 62 144 0.0 0.0 0.00 0.29 0.00 93 1019.2
20260902062232 62 134 0.0 0.0 0.00 0.00 0.00 97 1019.8
20260902062202 62 144 0.0 0.0 0.00 0.29 0.00 94 1019.1
20260902061731 62 134 0.0 0.0 0.00 0.00 0.00 97 1019.6
20260902061703 62 144 0.0 0.0 0.00 0.29 0.00 93 1019.1
20260902061227 62 145 0.0 0.0 0.00 0.00 0.00 96 1019.7
20260902061203 62 144 0.0 0.0 0.00 0.29 0.00 93 1019.1
20260902060724 62 131 0.0 0.0 0.00 0.00 0.00 96 1019.7
20260902060703 62 144 0.0 0.0 0.00 0.29 0.00 93 1019.0
20260902060219 62 115 0.0 0.0 0.00 0.00 0.00 96 1019.7
20260902060203 62 144 0.0 0.0 0.00 0.29 0.00 93 1019.0
20260902055715 62 98 0.0 0.0 0.00 0.00 0.00 96 1019.8
20260902055210 62 128 0.0 0.0 0.00 0.00 0.00 97 1019.8
20260902055203 62 144 0.0 0.0 0.00 0.29 0.00 93 1019.1
20260902054705 62 130 0.0 0.0 0.00 0.00 0.00 97 1019.8
20260902054203 62 144 0.0 0.0 0.00 0.29 0.00 93 1019.0
20260902054201 62 135 0.0 0.0 0.00 0.00 0.00 97 1019.7
20260902053656 62 110 0.0 0.0 0.00 0.00 0.00 96 1019.6
20260902053203 63 144 0.0 0.0 0.00 0.29 0.00 93 1018.9
20260902053150 62 116 0.0 0.0 0.00 0.00 0.00 96 1019.6
20260902052649 62 144 0.0 0.0 0.00 0.00 0.00 96 1019.6
20260902052203 63 144 0.0 0.0 0.00 0.29 0.00 93 1018.9
20260902052145 62 126 0.0 0.0 0.00 0.00 0.00 96 1019.7
20260902051703 63 144 0.0 0.0 0.00 0.29 0.00 93 1018.9
20260902051645 62 131 0.0 0.0 0.00 0.00 0.00 96 1019.4
20260902051203 63 144 0.0 0.0 0.00 0.29 0.00 93 1018.8
20260902051144 62 118 0.0 0.0 0.00 0.00 0.00 96 1019.5
20260902050703 63 144 0.0 0.0 0.00 0.29 0.00 93 1018.8
20260902050639 62 111 0.0 0.0 0.00 0.00 0.00 96 1019.5
20260902050203 63 144 0.0 0.0 0.00 0.29 0.00 93 1018.7
20260902050135 62 129 0.0 0.0 0.00 0.00 0.00 96 1019.4
20260902045630 62 129 0.0 0.0 0.00 0.00 0.00 96 1019.4
20260902045126 62 129 0.0 0.0 0.00 0.00 0.00 96 1019.2
20260902044703 63 144 0.0 0.0 0.00 0.29 0.00 93 1018.4
20260902044625 62 129 0.0 0.0 0.00 0.00 0.00 96 1019.0
20260902044203 63 144 0.0 0.0 0.00 0.29 0.00 93 1018.4
20260902044122 62 134 0.0 0.0 0.00 0.00 0.00 96 1018.9
20260902043703 63 144 0.0 0.0 0.00 0.29 0.00 93 1018.3
20260902043617 62 134 0.0 0.0 0.00 0.00 0.00 96 1018.8
20260902043203 63 144 0.0 0.0 0.00 0.29 0.00 93 1018.2
20260902043112 62 139 0.0 0.0 0.00 0.00 0.00 96 1018.8
20260902042703 63 144 0.0 0.0 0.00 0.29 0.00 93 1018.2
20260902042611 62 140 0.0 0.0 0.00 0.00 0.00 96 1018.9
20260902042202 63 144 0.0 0.0 0.00 0.29 0.00 93 1018.1
20260902042107 62 140 0.0 0.0 0.00 0.00 0.00 96 1018.7
20260902041703 63 144 0.0 0.0 0.00 0.29 0.00 93 1018.0
20260902041606 62 140 0.0 0.0 0.00 0.00 0.00 96 1018.7
20260902041203 63 144 0.0 0.0 0.00 0.29 0.00 93 1017.9
20260902041102 62 146 0.0 0.0 0.00 0.00 0.00 96 1018.3
20260902040703 63 144 0.0 0.0 0.00 0.29 0.00 93 1017.8
20260902040601 62 136 0.0 0.0 0.00 0.00 0.00 96 1018.5
20260902040203 63 144 0.0 0.0 0.00 0.29 0.00 93 1017.7
20260902040056 62 136 0.0 0.0 0.00 0.37 0.37 96 1018.3
20260902035554 62 142 0.0 0.0 0.00 0.37 0.37 96 1018.4
20260902035050 62 117 0.0 0.0 0.00 0.37 0.37 96 1018.3
20260902034703 63 144 0.0 0.0 0.00 0.29 0.29 93 1017.6
20260902034549 62 129 0.0 0.0 0.00 0.37 0.37 96 1018.2
20260902034203 63 144 0.0 0.0 0.00 0.29 0.29 93 1017.6
20260902034049 62 126 0.0 0.0 0.00 0.37 0.37 96 1018.2
20260902033703 63 144 0.0 0.0 0.00 0.29 0.29 93 1017.6
20260902033548 62 125 0.0 0.0 0.00 0.37 0.37 96 1018.3
20260902033043 62 116 0.0 0.0 0.00 0.37 0.37 96 1018.3
20260902032703 63 144 0.0 0.0 0.00 0.29 0.29 93 1017.5
20260902032542 62 108 0.0 0.0 0.00 0.37 0.37 96 1018.1
20260902032203 63 144 0.0 0.0 0.00 0.29 0.29 92 1017.4
20260902032037 62 127 0.0 0.0 0.00 0.37 0.37 96 1018.1
20260902031703 63 144 0.0 0.0 0.00 0.29 0.29 92 1017.4
20260902031532 62 125 0.0 0.0 0.00 0.37 0.37 96 1018.0
20260902031028 62 129 0.0 0.0 0.00 0.37 0.37 96 1018.4
20260902030703 63 144 0.0 0.0 0.00 0.29 0.29 92 1017.6
20260902030522 62 133 0.0 0.0 0.00 0.37 0.37 96 1018.4
20260902030203 63 144 0.0 0.0 0.00 0.29 0.29 92 1017.7
20260902030022 62 119 0.0 0.0 0.00 0.37 0.37 96 1018.4
20260902025703 63 144 0.0 0.0 0.00 0.29 0.29 92 1017.6
20260902025517 62 124 0.0 0.0 0.00 0.37 0.37 96 1018.3
20260902025012 62 123 0.0 0.0 0.00 0.37 0.37 96 1018.3
20260902024703 63 144 0.0 0.0 0.00 0.29 0.29 92 1017.6
20260902024508 62 98 0.0 0.0 0.00 0.37 0.37 96 1018.3
20260902024203 63 144 0.0 0.0 0.00 0.29 0.29 92 1017.7
20260902024008 62 104 0.0 0.0 0.00 0.37 0.37 96 1018.5
20260902023703 63 144 0.0 0.0 0.00 0.29 0.29 92 1017.7
20260902023504 62 131 0.0 0.0 0.00 0.37 0.37 96 1018.4
20260902023203 63 144 0.0 0.0 0.00 0.29 0.29 92 1017.6
20260902023003 62 131 0.0 0.0 0.00 0.37 0.37 96 1018.2
20260902022702 63 144 0.0 0.0 0.00 0.29 0.29 92 1017.7
20260902022458 62 131 0.0 0.0 0.00 0.37 0.37 95 1018.4
20260902022203 63 144 0.0 0.0 0.00 0.29 0.29 92 1017.6
20260902021953 62 132 0.0 0.0 0.00 0.37 0.37 95 1018.4
20260902021703 63 144 0.0 0.0 0.00 0.29 0.29 92 1017.6
20260902021448 62 134 0.0 0.0 0.00 0.37 0.37 95 1018.5
20260902021203 63 144 0.0 0.0 0.00 0.29 0.29 92 1017.8
20260902020944 62 133 0.0 0.0 0.00 0.37 0.37 95 1018.4
20260902020703 63 144 0.0 0.0 0.00 0.29 0.29 92 1017.8
20260902020440 62 138 0.0 0.0 0.00 0.37 0.37 95 1018.5
20260902020202 63 144 0.0 0.0 0.00 0.29 0.29 92 1017.8
20260902015935 62 122 0.0 0.0 0.00 0.37 0.37 95 1018.3
20260902015703 63 144 0.0 0.0 0.00 0.29 0.29 92 1017.7
20260902015431 62 123 0.0 0.0 0.00 0.37 0.37 95 1018.5
20260902015203 63 144 0.0 0.0 0.00 0.29 0.29 92 1017.7
20260902014932 62 137 0.0 0.0 0.00 0.37 0.37 95 1018.4
20260902014703 63 144 0.0 0.0 0.00 0.29 0.29 92 1017.8
20260902014429 62 103 0.0 0.0 0.00 0.37 0.37 95 1018.5
20260902014203 63 144 0.0 0.0 0.00 0.29 0.29 92 1017.7
20260902013927 62 127 0.0 0.0 0.00 0.37 0.37 95 1018.3
20260902013423 62 126 0.0 0.0 0.00 0.37 0.37 95 1018.2
20260902013203 63 144 0.0 0.0 0.00 0.29 0.29 91 1017.6
20260902012918 62 127 0.0 0.0 0.00 0.37 0.37 95 1018.2
20260902012703 63 144 0.0 0.0 0.00 0.29 0.29 91 1017.6
20260902012414 62 127 0.0 0.0 0.00 0.37 0.37 95 1018.4
20260902012203 63 144 0.0 0.0 0.00 0.29 0.29 91 1017.7
20260902011909 62 106 0.0 0.0 0.00 0.37 0.37 95 1018.4
20260902011703 63 144 0.0 0.0 0.00 0.29 0.29 91 1017.7
20260902011405 62 108 0.0 0.0 0.00 0.37 0.37 95 1018.4
20260902011203 63 144 0.0 0.0 0.00 0.29 0.29 91 1017.6
20260902010904 62 125 0.0 0.0 0.00 0.37 0.37 95 1018.2
20260902010703 63 144 0.0 0.0 0.00 0.29 0.29 91 1017.5
20260902010359 62 125 0.0 0.0 0.00 0.37 0.37 95 1018.3
20260902010202 63 144 0.0 0.0 0.00 0.29 0.29 91 1017.5
20260902005858 62 125 0.0 0.0 0.00 0.37 0.37 94 1018.2
20260902005703 63 144 0.0 0.0 0.00 0.29 0.29 91 1017.6
20260902005353 62 125 0.0 0.0 0.00 0.37 0.37 94 1018.3
20260902005203 63 144 0.0 0.0 0.00 0.29 0.29 91 1017.6
20260902004849 63 129 0.0 1.0 0.00 0.37 0.37 94 1018.3
20260902004703 63 144 0.0 0.0 0.00 0.29 0.29 91 1017.6
20260902004348 62 139 0.0 0.0 0.00 0.37 0.37 94 1018.3
20260902004203 63 144 0.0 0.0 0.00 0.29 0.29 91 1017.5
20260902003843 62 129 0.0 0.0 0.00 0.37 0.37 94 1018.2
20260902003703 63 144 0.0 0.0 0.00 0.29 0.29 90 1017.4
20260902003338 62 124 0.0 0.0 0.00 0.37 0.37 94 1017.9
20260902003203 63 144 0.0 0.0 0.00 0.29 0.29 90 1017.3
20260902002834 62 128 0.0 0.0 0.00 0.37 0.37 93 1018.2
20260902002703 63 144 0.0 0.0 0.00 0.29 0.29 90 1017.3
20260902002328 62 131 0.0 0.0 0.00 0.37 0.37 93 1018.0
20260902002203 63 144 0.0 0.0 0.00 0.29 0.29 90 1017.2
20260902001823 62 133 0.0 0.0 0.00 0.37 0.37 93 1018.0
20260902001703 63 144 0.0 0.0 0.00 0.29 0.29 90 1017.2
20260902001318 62 132 0.0 0.0 0.00 0.37 0.37 93 1017.9
20260902001203 63 144 0.0 0.0 0.00 0.29 0.29 90 1017.1
20260902000813 62 127 0.0 0.0 0.00 0.37 0.37 93 1017.8
20260902000703 63 144 0.0 0.0 0.00 0.29 0.29 90 1017.0
20260902000313 62 127 0.0 0.0 0.00 0.37 0.37 93 1017.7
20260902000204 63 144 0.0 0.0 0.00 0.29 0.29 90 1017.0
20260901235808 62 127 0.0 0.0 0.00 0.37 0.37 92 1017.7
20260901235703 63 144 0.0 0.0 0.00 0.29 0.29 90 1017.0
20260901235307 62 117 0.0 0.0 0.00 0.37 0.37 92 1017.6
20260901234802 62 134 0.0 0.0 0.00 0.37 0.37 92 1017.6
20260901234257 62 113 0.0 0.0 0.00 0.37 0.37 92 1017.5
20260901234203 63 144 0.0 0.0 0.01 0.29 0.29 90 1016.7
20260901233757 62 134 0.0 1.0 0.00 0.37 0.37 92 1017.6
20260901233703 63 144 0.0 0.0 0.01 0.29 0.29 89 1016.7
20260901233253 62 106 0.0 0.0 0.00 0.37 0.37 92 1017.7
20260901232748 62 121 0.0 1.0 0.00 0.37 0.37 92 1017.6
20260901232703 64 144 0.0 0.0 0.01 0.29 0.29 89 1017.0
20260901232238 63 128 0.0 2.0 0.00 0.37 0.37 92 1017.9
20260901232203 64 142 0.0 0.0 0.01 0.29 0.29 89 1017.2
20260901231734 63 106 0.0 0.0 0.00 0.37 0.37 91 1017.8
20260901231703 64 142 0.0 0.0 0.01 0.29 0.29 89 1017.2
20260901231230 63 106 0.0 0.0 0.00 0.37 0.37 91 1017.9
20260901231203 64 142 0.0 0.0 0.01 0.29 0.29 89 1017.2
20260901230726 63 125 0.0 0.0 0.00 0.37 0.37 91 1017.9
20260901230703 64 142 0.0 0.0 0.01 0.29 0.29 89 1017.1
20260901230225 63 135 0.0 1.0 0.00 0.37 0.37 90 1017.8
20260901230203 64 142 0.0 0.0 0.01 0.29 0.29 89 1017.1
20260901225720 63 144 0.0 2.0 0.00 0.37 0.37 91 1017.8
20260901225703 64 131 0.0 5.0 0.01 0.29 0.29 88 1017.1
20260901225214 63 135 4.0 4.0 0.00 0.37 0.37 92 1017.9
20260901225203 65 165 0.0 0.0 0.01 0.29 0.29 89 1017.0
20260901224711 64 133 1.0 2.0 0.07 0.37 0.37 92 1017.9
20260901224207 64 153 0.0 1.0 0.07 0.37 0.37 91 1017.7
20260901224202 65 151 0.0 0.0 0.00 0.28 0.28 89 1017.0
20260901223703 65 139 0.0 0.0 0.00 0.28 0.28 88 1017.0
20260901223204 66 163 0.0 1.0 0.00 0.28 0.28 88 1016.8
20260901223157 65 181 1.0 1.0 0.00 0.36 0.36 90 1017.6
20260901222653 65 123 1.0 2.0 0.00 0.36 0.36 89 1017.6
20260901222336 66 158 0.0 1.0 0.00 0.28 0.28 88 1017.1
20260901222149 65 159 0.0 1.0 0.00 0.36 0.36 88 1017.5
20260901221645 65 121 0.0 4.0 0.00 0.36 0.36 88 1017.4
20260901221351 66 132 2.0 9.0 0.00 0.28 0.28 88 1016.9
20260901221141 66 126 1.0 2.0 0.00 0.36 0.36 87 1017.3
20260901220639 66 105 1.0 2.0 0.00 0.36 0.36 88 1017.4
20260901220322 67 111 0.0 5.0 0.00 0.28 0.28 88 1016.8
20260901220139 66 104 2.0 2.0 0.00 0.36 0.36 87 1017.3
20260901215637 66 148 0.0 1.0 0.00 0.36 0.36 88 1017.1
20260901215350 67 172 0.0 0.0 0.00 0.28 0.28 88 1016.8
20260901215132 66 118 0.0 4.0 0.00 0.36 0.36 87 1016.9
20260901214630 66 154 0.0 0.0 0.00 0.36 0.36 87 1016.9
20260901214334 67 155 0.0 0.0 0.00 0.28 0.28 88 1016.7
20260901214125 67 125 0.0 1.0 0.00 0.36 0.36 87 1017.1
20260901213624 66 136 0.0 1.0 0.00 0.36 0.36 87 1017.1
20260901213339 67 156 0.0 0.0 0.00 0.28 0.28 88 1016.6
20260901213119 67 143 1.0 1.0 0.00 0.36 0.36 88 1016.9
20260901212620 67 176 0.0 1.0 0.00 0.36 0.36 87 1016.9
20260901212350 67 167 0.0 0.0 0.00 0.28 0.28 88 1016.6
20260901212116 67 113 0.0 1.0 0.00 0.36 0.36 87 1016.9
20260901211616 67 126 0.0 0.0 0.00 0.36 0.36 87 1016.9
20260901211340 67 168 0.0 0.0 0.00 0.28 0.28 88 1016.6
20260901211112 67 107 0.0 0.0 0.00 0.36 0.36 87 1017.1
20260901210608 67 114 1.0 3.0 0.00 0.36 0.36 87 1016.9
20260901210203 67 155 0.0 0.0 0.00 0.28 0.28 88 1016.2
20260901210104 67 140 0.0 1.0 0.00 0.36 0.36 87 1016.6
20260901205703 67 166 0.0 0.0 0.00 0.28 0.28 88 1016.1
20260901205559 67 166 2.0 3.0 0.00 0.36 0.36 87 1016.6
20260901205203 67 178 0.0 0.0 0.00 0.28 0.28 89 1016.0
20260901205059 67 138 1.0 2.0 0.00 0.36 0.36 88 1016.7
20260901204703 67 160 0.0 0.0 0.00 0.28 0.28 89 1016.0
20260901204555 67 140 0.0 1.0 0.00 0.36 0.36 88 1016.7
20260901204203 67 157 0.0 0.0 0.00 0.28 0.28 88 1016.1
20260901204051 67 153 2.0 2.0 0.00 0.36 0.36 87 1016.9
20260901203704 67 97 0.0 0.0 0.00 0.28 0.28 89 1016.0
20260901203551 67 148 0.0 0.0 0.00 0.36 0.36 87 1016.7
20260901203203 67 96 0.0 0.0 0.00 0.28 0.28 89 1016.0
20260901203046 67 80 0.0 1.0 0.00 0.36 0.36 86 1016.6
20260901202545 68 123 0.0 1.0 0.00 0.36 0.36 87 1016.6